カタログに戻る

GALILEO 29

10C

運用中ナビゲーションMEO
NORAD 59598·PAYLOAD·🇪🇺 EU

打ち上げ Apr 28, 2024 から Cape Canaveral Space Force Station

Loading…

次のパス (今後24時間)

TLE

最新Source: CelesTrak SupGP

元期: Sep 14, 2026, 23:59 UTC

1 59598C 24079A   26257.99979167  .00000000  00000+0  00000+0 0  2572
2 59598  55.1776  98.5686 0001506 131.3347 134.4015  1.70474466    13

AllMySatでGALILEO 29をリアルタイム追跡

Download on the App Store